Вернуться в каталог

STARLINK-34994

АктивенСвязьVLEO
NORAD 65924·PAYLOAD·🇺🇸 United States

Запущен Oct 8, 2025 с Vandenberg Space Force Base

Loading…

Ближайшие Пролёты (ближайшие 24 часа)

TLE

СвежийSource: CelesTrak SupGP

Эпоха: Sep 14, 2026, 14:33 UTC

1 65924C 25225Q   26257.60673611 -.00028570  00000+0 -84435-3 0  2571
2 65924  53.1597   4.9695 0001157  72.2187  63.3075 15.34395447    12

Отслеживайте STARLINK-34994 в реальном времени с AllMySat

Download on the App Store